CZ-3B R/B

基本信息
目录编号:
57625
目录名称:
CZ-3B R/B
国际标识:
2023-120B
轨道中心:
EARTH
物体状态:
已陨落(2023-10-30)
发射日期:
2023-08-12 UTC
国别:
中国 (CN)
轨道信息
数据来源: 国际轨道数据
星历时间: 2023-10-30T17:08:54+0800
半长轴: 6872.233km
偏心率: 0.0585743
轨道倾角: 28.417°
近地点辐角: 264.905°
升交点赤经: 166.744°
平近点角: 250.548°
近地点: 91.561km
远地点: 896.635km
周期: 94.494分钟
每日圈数: 15.238983
详细信息
发射场:
XSC
轨道高度:
LEO
数据来源:
AOE Integration Group
参考系:
TEME
时间系统:
UTC
历元类型:
SGP4
2D轨道图
3D轨道图
轨道高度分析图
轨道倾角分析图
轨道综合分析图
查看轨道综合分析图